Weather History for KOMK - December, 2013

Change the Weather History Date:

Sunday, December 29, 2013

  Actual Average Record
Temperature  
Mean Temperature 27 °F 24 °F  
Max Temperature 29 °F 30 °F 49 °F (1998)
Min Temperature 25 °F 18 °F -14 °F (1968)
Degree Days  
Heating Degree Days 38 41  
Month to date heating degree days 1235 1138  
Since 1 July heating degree days 2832 2671  
Cooling Degree Days 0 0  
Month to date cooling degree days 0 0  
Year to date cooling degree days 814 665  
Moisture  
Dew Point 24 °F    
Average Humidity 85    
Maximum Humidity 92    
Minimum Humidity 78    
Precipitation  
Precipitation T in 0.09 in 0.71 in (1998)
Month to date precipitation 0.11 2.38  
Year to date precipitation 10.00 14.89  
Sea Level Pressure  
Sea Level Pressure 30.38 in    
Wind  
Wind Speed 3 mph (South)    
Max Wind Speed 12 mph    
Max Gust Speed 16 mph    
Visibility 7 miles    
Events Fog    
T = Trace of Precipitation, MM = Missing Value Source: NWS Daily Summary

Daily Weather History Graph

Daily Weather History Graph

Search for Another Location

Airport or City:

Trip Planner

Search our weather history database for the weather conditions in past years. The results will help you decide how hot, cold, wet, or windy it might be!

Date:

Astronomy

Dec. 29, 2013 Rise Set
Actual Time 7:49 AM PST 4:11 PM PST
Civil Twilight 7:13 AM PST 4:47 PM PST
Nautical Twilight 6:33 AM PST 5:27 PM PST
Astronomical Twilight 5:54 AM PST 6:05 PM PST
Moon 4:32 AM PST (12/29) 1:59 PM PST (12/29)
Length of Visible Light 9h 34m
Length of Day
8h 21m
Waning Crescent, 10% of the Moon is Illuminated
Dec 29
Waning Crescent
Jan 1
New
Jan 7
First Quarter
Jan 15
Full
Jan 23
Last Quarter

Hourly Weather History & Observations

Time (PST) Temp. Windchill Dew Point Humidity Pressure Visibility Wind Dir Wind Speed Gust Speed Precip Events Conditions
12:14 AM 26.6 °F - 24.8 °F 93% 30.43 in 0.2 mi Calm Calm - N/A Fog Light Freezing Fog
12:53 AM 27.0 °F 23.0 °F 24.1 °F 89% 30.48 in 0.2 mi SSW 3.5 mph - N/A Fog Light Freezing Fog
12:56 AM 26.6 °F 21.2 °F 24.8 °F 93% 30.43 in 0.5 mi SSW 4.6 mph - N/A Fog Light Freezing Fog
1:10 AM 26.6 °F 21.2 °F 23.0 °F 86% 30.42 in 1.2 mi SSW 4.6 mph - N/A   Overcast
1:42 AM 26.6 °F - 23.0 °F 86% 30.42 in 0.8 mi Calm Calm - N/A   Mist
1:53 AM 26.1 °F - 23.0 °F 88% 30.47 in 0.8 mi Calm Calm - N/A   Mist
2:33 AM 26.6 °F 21.2 °F 23.0 °F 86% 30.40 in 1.2 mi South 4.6 mph - N/A   Overcast
2:42 AM 26.6 °F 21.2 °F 23.0 °F 86% 30.40 in 1.0 mi South 4.6 mph - N/A   Mist
2:53 AM 26.1 °F 18.4 °F 23.0 °F 88% 30.44 in 1.0 mi South 6.9 mph - N/A   Mist
3:00 AM 26.6 °F 18.2 °F 23.0 °F 86% 30.38 in 0.8 mi South 8.1 mph - N/A   Mist
3:18 AM 26.6 °F 20.0 °F 24.8 °F 93% 30.38 in 1.0 mi South 5.8 mph - N/A   Mist
3:28 AM 26.6 °F 18.2 °F 24.8 °F 93% 30.38 in 0.8 mi South 8.1 mph - N/A   Mist
3:46 AM 26.6 °F 17.5 °F 24.8 °F 93% 30.36 in 1.2 mi South 9.2 mph - N/A   Overcast
3:53 AM 27.0 °F 17.3 °F 24.1 °F 89% 30.42 in 2.5 mi South 10.4 mph - N/A   Overcast
4:04 AM 26.6 °F 19.1 °F 24.8 °F 93% 30.36 in 5.0 mi South 6.9 mph - N/A   Overcast
4:49 AM 26.6 °F 18.2 °F 24.8 °F 93% 30.35 in 10.0 mi SSW 8.1 mph - N/A   Overcast
4:53 AM 27.0 °F 18.7 °F 24.1 °F 89% 30.40 in 10.0 mi South 8.1 mph - N/A   Overcast
5:53 AM 26.1 °F 19.4 °F 23.0 °F 88% 30.40 in 10.0 mi SSW 5.8 mph - N/A   Overcast
6:09 AM 26.6 °F 20.0 °F 23.0 °F 86% 30.35 in 10.0 mi SSW 5.8 mph - N/A   Overcast
6:53 AM 27.0 °F 18.7 °F 23.0 °F 85% 30.38 in 10.0 mi South 8.1 mph - N/A   Overcast
7:53 AM 26.1 °F 18.4 °F 21.9 °F 84% 30.37 in 10.0 mi South 6.9 mph - N/A   Overcast
8:53 AM 25.0 °F 20.7 °F 21.9 °F 88% 30.40 in 10.0 mi ESE 3.5 mph - N/A   Overcast
9:53 AM 25.0 °F 20.7 °F 21.9 °F 88% 30.42 in 10.0 mi East 3.5 mph - N/A   Overcast
10:53 AM 26.1 °F - 23.0 °F 88% 30.40 in 10.0 mi Calm Calm - 0.00 in   Overcast
11:13 AM 26.6 °F 20.0 °F 23.0 °F 86% 30.34 in 10.0 mi SE 5.8 mph - 0.00 in   Overcast
11:35 AM 26.6 °F 20.0 °F 23.0 °F 86% 30.33 in 10.0 mi South 5.8 mph - 0.00 in   Overcast
11:53 AM 26.1 °F 21.9 °F 23.0 °F 88% 30.37 in 10.0 mi South 3.5 mph - 0.00 in   Overcast
12:53 PM 27.0 °F - 23.0 °F 85% 30.35 in 10.0 mi Calm Calm - N/A   Overcast
1:53 PM 28.0 °F 20.8 °F 23.0 °F 81% 30.32 in 10.0 mi SSE 6.9 mph - N/A   Overcast
2:53 PM 28.9 °F - 24.1 °F 82% 30.32 in 10.0 mi Calm Calm - N/A   Overcast
3:53 PM 28.9 °F - 24.1 °F 82% 30.32 in 10.0 mi Calm Calm - N/A   Overcast
4:53 PM 28.0 °F - 24.1 °F 85% 30.32 in 10.0 mi Calm Calm - N/A   Overcast
5:20 PM 28.4 °F - 24.8 °F 86% 30.27 in 10.0 mi Calm Calm - N/A   Overcast
5:53 PM 28.0 °F - 25.0 °F 88% 30.33 in 10.0 mi Calm Calm - N/A   Overcast
6:53 PM 28.0 °F - 25.0 °F 88% 30.33 in 10.0 mi Calm Calm - N/A   Overcast
7:53 PM 28.0 °F - 25.0 °F 88% 30.34 in 10.0 mi Calm Calm - N/A   Overcast
8:53 PM 28.9 °F 25.2 °F 24.1 °F 82% 30.36 in 10.0 mi ESE 3.5 mph - N/A   Overcast
9:53 PM 28.9 °F - 24.1 °F 82% 30.36 in 10.0 mi Calm Calm - N/A   Overcast
10:53 PM 28.0 °F - 25.0 °F 88% 30.37 in 10.0 mi Calm Calm - N/A   Overcast
11:53 PM 28.0 °F - 24.1 °F 85% 30.37 in 8.0 mi Calm Calm - N/A   Overcast